www.pogodaiklimat.ru

Погода и климат >> Архив погоды >> Россия >> Крым >> Черноморское


АРХИВ ПОГОДЫ в Черноморском

Время (UTC), дата Ветер
(напр.,м/с)
 
Видим.   Явления Облачность Т
(С)
Тd
(С)
f
(%)
Тe
(С)
Тes
(С)
Комфортность P
(гПа)
Po
(гПа)
Тmin
(С)
Tmax
(С)
R
(мм)
R24
(мм)
S
(см)
21 8.09 В 3 20 км ясно +17.2 +8.7 57 +17 +17 1021.1 1019.9
00 9.09 В 3 20 км ясно +17.2 +11.3 68 +17 +17 1020.8 1019.6
03 9.09 В 2 20 км ясно +15.6 +11.5 77 +16 +16 1020.6 1019.4 +15.5
06 9.09 В 7-10
{11}
50 км ясно +22.8 +10.5 46 +25 +26 комфорт 1020.0 1018.8 +15.4
09 9.09 В 9-13
{16}
50 км ясно +27.0 +0.8 18 +25 +26 комфорт 1018.9 1017.7
12 9.09 В 8-13
{15}
50 км ясно +28.0 +5.0 23 +27 +28 жарко 1018.0 1016.8
15 9.09 В 10-14
{15}
50 км ясно +25.0 +6.1 30 +25 +25 комфорт 1017.8 1016.6
18 9.09 В 6
{14}
20 км ясно +21.3 +11.0 52 +23 +23 комфорт 1018.5 1017.3 +28.9
21 9.09 В 3 20 км ясно +16.5 +10.8 69 +16 +16 1018.6 1017.4
00 10.09 В 4 20 км ясно +16.0 +11.4 74 +15 +15 1017.8 1016.6
03 10.09 В 5 10 км ясно +14.9 +11.5 80 +13 +13 1018.0 1016.8 +14.8
06 10.09 В 4 20 км ясно +20.6 +12.9 61 +23 +26 комфорт 1018.8 1017.6 +14.5
09 10.09 СВ 9-13
{13}
50 км 1/0
[Ci fib]
+23.6 +13.9 54 +26 +27 жарко 1018.0 1016.8
12 10.09 В 9-14
{14}
50 км 1/0
[Ci fib]
+27.6 +10.5 34 +28 +29 жарко 1017.5 1016.3
15 10.09 В 10-14
{15}
50 км ясно +25.4 +10.9 40 +26 +26 жарко 1018.0 1016.8
18 10.09 В 8-12
{14}
20 км ясно +20.9 +10.1 50 +22 +22 комфорт 1020.1 1018.9 +27.6
21 10.09 В 4
{12}
20 км ясно +16.8 +11.7 72 +16 +16 1020.4 1019.2
00 11.09 В 3 20 км ясно +15.4 +11.8 79 +15 +15 1020.7 1019.5
03 11.09 В 4 20 км ясно +14.7 +11.1 79 +13 +13 1021.5 1020.3 +14.5
06 11.09 В 7 20 км ясно +21.4 +12.6 57 +24 +25 комфорт 1022.2 1021.0 +14.5
09 11.09 СВ 8-14
{15}
50 км ясно +26.4 +9.7 35 +27 +29 жарко 1021.4 1020.2
12 11.09 В 11-15
{17}
50 км ясно +28.5 +8.0 28 +28 +28 жарко 1021.5 1020.3
15 11.09 В 10-14
{15}
50 км ясно +26.0 +10.1 37 +27 +27 жарко 1022.3 1021.1
18 11.09 В 5
{14}
20 км ясно +21.0 +8.8 46 +23 +23 комфорт 1022.9 1021.7 +29.3
21 11.09 В 3 20 км ясно +16.8 +8.7 59 +17 +17 1022.8 1021.6
00 12.09 В 3 20 км ясно +16.6 +11.2 70 +16 +16 1022.8 1021.6
03 12.09 В 4 20 км ясно +14.6 +11.2 80 +13 +13 1023.1 1021.9 +14.5
06 12.09 В 6 20 км ясно +19.8 +11.5 59 +21 +22 комфорт 1023.2 1022.0 +13.9
09 12.09 В 8-13
{14}
50 км ясно +27.8 +5.2 24 +27 +29 жарко 1023.1 1021.9
12 12.09 В 8-13
{14}
50 км ясно +29.3 +3.8 20 +27 +29 жарко 1022.5 1021.3
15 12.09 В 8-12
{14}
50 км 3/0
[Ci fib]
+27.1 +2.6 21 +26 +26 жарко 1022.6 1021.4
18 12.09 В 2
{12}
20 км ясно +18.8 +4.2 38 +20 +20 1023.9 1022.7 +29.6
21 12.09 В 3 20 км ясно +16.4 +4.4 45 +16 +16 1023.6 1022.4
00 13.09 ЮВ 3 20 км ясно +16.0 +6.0 51 +16 +16 1023.4 1022.2
03 13.09 ЮВ 1 10 км ясно +14.0 +11.0 82 +14 +14 1023.7 1022.5 +13.8
06 13.09 В 2 20 км ясно +20.6 +12.3 59 +23 +27 комфорт 1024.2 1023.0 +13.8
09 13.09 СВ 5 20 км 4/0
[Ci fib]
+23.8 +12.5 49 +26 +31 жарко 1023.8 1022.6
12 13.09 СВ 5 50 км 6/0
[Ci fib]
+25.6 +9.9 37 +26 +30 жарко 1022.7 1021.5
15 13.09 С 4 50 км 8/0
[Ci fib]
+25.2 +10.1 39 +26 +27 жарко 1021.7 1020.5
18 13.09 СЗ 1 20 км 1/0
[Ci fib]
+22.2 +15.2 65 +26 +26 душно 1022.9 1021.7 +26.0
21 13.09 Ю 2 20 км ясно +16.0 +11.2 73 +16 +16 1022.4 1021.2
00 14.09 Ю 2 20 км ясно +13.8 +6.6 62 +13 +13 1022.0 1020.8
03 14.09 Ю 3 10 км ясно +13.9 +11.1 83 +13 +13 1021.6 1020.4 +12.9
06 14.09 Ю 1 20 км ясно +21.8 +15.5 67 +25 +29 комфорт 1021.5 1020.3 +12.9
09 14.09 СЗ 2 50 км ясно +24.6 +10.4 41 +26 +37 жарко 1021.2 1020.0
12 14.09 З 5 20 км 3/0
[Ci fib]
+24.7 +18.8 70 +30 +34 очень
душно
1020.6 1019.4
15 14.09 СЗ 7
{10}
20 км 9/0
[Ac trans Ci fib]
+23.7 +15.8 61 +27 +27 жарко 1019.6 1018.4
18 14.09 С 3 20 км 9/0
[Ac As Cc]
+23.0 +17.0 69 +28 +28 душно 1020.7 1019.5 +25.4
21 14.09 СВ 6-10
{11}
20 км 1/0
[Cc]
+21.6 +13.3 59 +24 +24 комфорт 1022.4 1021.2
00 15.09 СВ 8-11
{13}
20 км 1/0
[Ac trans]
+19.4 +6.4 43 +19 +19 1023.2 1022.0
03 15.09 СВ 8-10
{12}
20 км ясно +18.0 +8.1 52 +17 +17 1023.9 1022.7 +17.9
06 15.09 СВ 5
{12}
20 км 3/0
[Ci fib]
+19.0 +9.2 53 +19 +21 1025.2 1024.0 +17.9
09 15.09 В 7
{10}
50 км ясно +20.5 +5.3 37 +21 +24 комфорт 1025.4 1024.2
12 15.09 СВ 6
{11}
50 км ясно +20.9 +2.8 30 +21 +24 комфорт 1024.5 1023.3
15 15.09 СЗ 3 50 км 1/0
[Ci fib]
+20.8 +4.4 34 +22 +22 комфорт 1023.4 1022.2
18 15.09 СЗ 3 20 км ясно +19.2 +7.0 45 +20 +20 1023.3 1022.1 +21.4

 

Местоположение метеостанции Черноморское (Крым, Россия): широта 45.52 долгота 32.70 высота над уровнем моря 10 м.

В архиве по умолчанию представлена погода в Черноморском за последнюю неделю. Архивные данные за месяц целиком и за предыдущие месяцы, начиная с января 2011 года, Вы можете получить, выбрав интересующий диапазон дат из раскрывающегося списка и нажав кнопку "Ввод!".


*Определитесь, кто Вы:
робот инопланетянин человек

Внимание! Время в таблицах - всемирное. Для получения местного времени необходимо прибавить поправку, которая равна 3 ч.

Смотрите также архив погоды в соседних городах и на ближайших метеорологических станциях:

Погода в Евпатории (Крым, Россия) (65 км)
Погода в Раздольном (Крым, Россия) (67 км)
Погода в Хорлах (Херсонская область, Украина) (83 км)
Погода в Бехтерах (Херсонская область, Украина) (87 км)
Погода в Ишуни (Крым, Россия) (98 км)
Погода в Симферополе (Крым, Россия) (113 км)
Погода в Клепинино (Крым, Россия) (115 км)
Погода в Херсонесском Маяке (город Севастополь, Россия) (117 км)
Погода в Севастополе (город Севастополь, Россия) (119 км)
Погода в Херсоне (Херсонская область, Украина) (124 км)

Пояснения к столбцам:

Ветер - указаны скорость ветра в м/с - средняя за 10 мин, порывы в срок и между сроками (в фигурных скобках) и направление, откуда дует ветер: С - северный, СВ - северо-восточный, В - восточный, ЮВ - юго-восточный, Ю - южный, ЮЗ - юго-западный, З - западный, СЗ - северо-западный.
Видимость - горизонтальная дальность видимости в метрах или километрах. При видимости от 1 до 10 км при отсутствии осадков обычно наблюдается дымка, при ухудшении видимости до 1 км и менее - туман. В сухую погоду видимость может ухудшаться дымом, пылью или мглою.
Явления - указаны атмосферные явления, наблюдавшиеся в срок или в последний час перед сроком; фигурными скобками обозначены явления, наблюдавшиеся между сроками (за 1-3 часа до срока); квадратными скобками обозначены град или гололедные отложения с указанием их диаметра в мм.
Облачность - указаны через наклонную черту общая и нижняя облачность в баллах и высота нижней границы облаков в метрах; квадратными скобками обозначены формы облаков: Ci - перистые, Cs - перисто-слоистые, Cc - перисто-кучевые, Ac - высококучевые, As - высокослоистые, Sc - слоисто-кучевые, Ns - слоисто-дождевые, Cu - кучевые, Cb - кучево-дождевые. Подробнее классификацию облаков см. в Атласе облаков (PDF).
T - Температура воздуха - температура, измеренная на высоте 2 м над землей.
Td - Температура точки росы - температура, при понижении до которой содержащийся в воздухе водяной пар достигнет насыщения.
f - Относительная влажность воздуха - влажноcть воздуха, измеренная на высоте 2 м над землей.
Te - Эффективная температура - температура, которую ощущает одетый по сезону человек в тени. Характеристика душности погоды. При расчете учитывается влияние влажности воздуха и скорости ветра на теплоощущения человека.
Tes - Эффективная температура на солнце - температура, которую ощущает человек, с поправкой на солнечный нагрев. Характеристика знойности погоды. Зависит от высоты солнца над горизонтом, облачности и скорости ветра. Ночью, в пасмурную погоду, а также при ветре 12 м/с и более поправка равна нулю.
P - Атмосферное давление - приведенное к уровню моря атмосферное давление.
Po - Атмосферное давление - измеренное на уровне метеостанции атмосферное давление.
Tmin - Минимальная температура - минимум температуры воздуха на высоте 2 м над землей.
Tmax - Максимальная температура - максимум температуры воздуха на высоте 2 м над землей.
R - Количество осадков - Количество выпавших осадков за период времени, мм. При наведении курсора мыши на число - период времени, за который выпало указанное количество осадков.
R24 - Количество осадков - Количество выпавших осадков за 24 часа, мм.
S - Снежный покров - Высота снежного покрова, см. При наведении курсора мыши на число - состояние снежного покрова и степень покрытия местности в баллах.